Regional Weather Roundup
Issued by NWS

Home | Current Version | Previous Version | Graphics & Text | Print | Product List | Glossary On
Versions: 1 2 3 4 5 6 7 8 9 10 11 12 13 14 15 16 17 18 19 20 21 22 23 24 25 26 27 28 29 30 31 32 33 34 35 36 37 38 39 40 41 42 43 44 45 46 47 48 49 50
000
ASUS43 KOAX 010910
RWRNE

WEATHER ROUNDUP FOR NEBRASKA
NATIONAL WEATHER SERVICE OMAHA NE
400 AM CDT WED JUL 01 2015

NOTES: SATELLITE DATA IS BEING USED TO AUGMENT CLOUD COVER ABOVE
       12000 FEET.
       "FAIR" INDICATES FEW OR NO CLOUDS BELOW 12,000 FEET WITH NO
       SIGNIFICANT WEATHER AND/OR OBSTRUCTIONS TO VISIBILITY.

  * THESE STATIONS DO NOT REPORT WEATHER SUCH AS RAIN...SNOW OR FOG.

NEZ001>004-019>022-054>056-011000-
NEBRASKA PANHANDLE

CITY           SKY/WX    TMP DP  RH WIND       PRES   REMARKS
SCOTTSBLUFF    CLEAR     65  58  78 NW5       29.99F
ALLIANCE       PTCLDY    67  60  78 NW8       29.97S
CHADRON        PTCLDY    67  64  90 S6        29.95F
KIMBALL          N/A    N/A N/A N/A MISG        N/A
SIDNEY         PTCLDY    65  58  78 NW13      30.01R
$$

NEZ057>060-069>072-079>082-011000-
SOUTHWEST NEBRASKA

CITY           SKY/WX    TMP DP  RH WIND       PRES   REMARKS
NORTH PLATTE   CLEAR     66  62  87 N5        29.88R
IMPERIAL       CLOUDY    75  61  61 N10       29.87S
LEXINGTON      CLEAR     65  63  92 NE3       29.81F FOG
MCCOOK         CLOUDY    74  58  57 VRB5      29.80F
OGALLALA       PTCLDY    72  63  72 NW14      29.88F
$$

NEZ005>010-023>029-035>040-094-011000-
NORTH CENTRAL NEBRASKA

CITY           SKY/WX    TMP DP  RH WIND       PRES   REMARKS
VALENTINE      CLEAR     62  60  93 E3        29.89S
AINSWORTH      CLEAR     62  60  96 CALM      29.89R
BROKEN BOW     PTCLDY    64  61  90 E3        29.83F
O`NEILL        PTCLDY    64  63  97 NE5       29.87S
ORD            PTCLDY    65  61  87 CALM      29.82F
THEDFORD       CLEAR     61  60  96 CALM      29.90R FOG
$$

NEZ041-046>049-061>064-073>077-083>087-011000-
SOUTH CENTRAL NEBRASKA

CITY           SKY/WX    TMP DP  RH WIND       PRES   REMARKS
GRAND ISLAND   PTCLDY    68  62  81 E10       29.82S
AURORA         PTCLDY    69  64  84 SE14      29.81S
HASTINGS       PTCLDY    69  63  81 SE12      29.80F
HEBRON         MOCLDY    71  62  72 E14       29.82S
HOLDREGE       PTCLDY    67  64  90 E6        29.79F
KEARNEY *      PTCLDY    66  61  82 E7        29.81S
YORK           PTCLDY    68  64  88 SE9       29.84R
$$

NEZ011>018-030>034-042>045-011000-
NORTHEAST NEBRASKA

CITY           SKY/WX    TMP DP  RH WIND       PRES   REMARKS
NORFOLK        PTCLDY    65  64  97 E5        29.84F FOG
ALBION         PTCLDY    65  61  85 E5        29.83F
BLAIR          MOCLDY    65  63  93 SE6       29.85S FOG
COLUMBUS *     MOCLDY   N/A N/A N/A NE6       29.82S
FREMONT        MOCLDY    68  65  92 E7        29.84F
TEKAMAH        MOCLDY    67  66  97 E3        29.84F FOG
WAYNE          MOCLDY    65  63  94 S3        29.86F
$$

NEZ050>053-065>068-078-088>093-011000-
SOUTHEAST NEBRASKA

CITY           SKY/WX    TMP DP  RH WIND       PRES   REMARKS
LINCOLN        CLOUDY    69  66  90 N9        29.84R
OMAHA EPPLEY   CLOUDY    67  66  97 SE6       29.86R
BEATRICE       CLOUDY    68  64  85 SE17G26   29.81F
FALLS CITY     LGT RAIN  68  66  93 SE9       29.88F
NEBRASKA CITY  CLOUDY    67  65  93 S10       29.82S
PLATTSMOUTH    CLOUDY    67  64  89 CALM      29.84F
$$

NEZ044-045-051>053-067-011000-
OMAHA AREA

CITY           SKY/WX    TMP DP  RH WIND       PRES   REMARKS
OMAHA EPPLEY   CLOUDY    67  66  97 SE6       29.86R
BLAIR          MOCLDY    65  63  93 SE6       29.85S FOG
FREMONT        MOCLDY    68  65  92 E7        29.84F
MILLARD        MOCLDY    67  66  94 CALM      29.84F
OFFUTT AFB     MOCLDY    67  65  95 E6        29.84S
PLATTSMOUTH    CLOUDY    67  64  89 CALM      29.84F
WAHOO          FAIR      67  65  93 E6        29.83F
$$



USA.gov is the U.S. government's official web portal to all federal, state and local government web resources and services.